Tracking 28790 objects as of 18-Apr-2024
HD Live streaming from Space Station
objects crossing your sky now

CZ-4C R/B

Track CZ-4C R/B now!
10-day predictions


NORAD ID: 39261
Int'l Code: 2013-052B
Perigee: 764.9 km
Apogee: 809.0 km
Inclination: 98.9 °
Period: 100.4 minutes
Semi major axis: 7157 km
RCS: Unknown
Launch date: September 23, 2013
Source: People's Republic of China (PRC)
Launch site: Taiyaun Space Center, China (TSC)

Note: This is a ROCKET BODY
Your satellite tracking list
Your tracking list is empty




NASA's NSSDC Master Catalog

Two Line Element Set (TLE):
1 39261U 13052B   24109.55761559  .00000302  00000-0  12568-3 0  9991
2 39261  98.9485 324.8657 0030799 248.3446 111.4456 14.33577548552933
Source of the keplerian elements: AFSPC